Athens, GA

8:46 PM EST on February 27, 2017 (GMT -0500)
Athens / Epps

Weather History for KAHN - October, 2011

Change the Weather History Date:

Thursday, October 13, 2011

  Actual Average Record
Temperature  
Mean Temperature 67 °F 64 °F  
Max Temperature 76 °F 75 °F 88 °F (1933)
Min Temperature 58 °F 52 °F 35 °F (1917)
Degree Days  
Heating Degree Days 0 3  
Month to date heating degree days 28 30  
Since 1 July heating degree days 30 40  
Cooling Degree Days 2 2  
Month to date cooling degree days 11 40  
Year to date cooling degree days 2202 1855  
Growing Degree Days 15 (Base 50)    
Moisture  
Dew Point 59 °F    
Average Humidity 73    
Maximum Humidity 93    
Minimum Humidity 53    
Precipitation  
Precipitation 0.05 in 0.12 in 4.31 in (1986)
Month to date precipitation 2.74 1.66  
Year to date precipitation 28.74 36.89  
Snow  
Snow 0.00 in 0.00 in 0.00 in (2002)
Month to date snowfall 0.0  
Since 1 July snowfall 0.0  
Since 1 September snowfall 0.0  
Snow Depth -    
Sea Level Pressure  
Sea Level Pressure 29.72 in    
Wind  
Wind Speed 6 mph (SW)    
Max Wind Speed 24 mph    
Max Gust Speed 33 mph    
Visibility 7 miles    
Events Rain    
T = Trace of Precipitation, MM = Missing Value Source: NWS Daily Summary

Daily Weather History Graph

Daily Weather History Graph

Search for Another Location

Airport or City:

Trip Planner

Search our weather history database for the weather conditions in past years. The results will help you decide how hot, cold, wet, or windy it might be!

Date:

Astronomy

Oct. 13, 2011 Rise Set
Actual Time 7:36 AM EDT 7:02 PM EDT
Civil Twilight 7:11 AM EDT 7:27 PM EDT
Nautical Twilight 6:42 AM EDT 7:56 PM EDT
Astronomical Twilight 6:13 AM EDT 8:25 PM EDT
Moon 7:45 PM EDT (10/13) 9:00 AM EDT (10/13)
Length of Visible Light 12h 15m
Length of Day
11h 25m
Full, 98% of the Moon is Illuminated
Oct 13
Full
Oct 19
Last Quarter
Oct 26
New
Nov 2
First Quarter
Nov 10
Full

Hourly Weather History & Observations

Time (EDT) Temp. Dew Point Humidity Pressure Visibility Wind Dir Wind Speed Gust Speed Precip Events Conditions
12:08 AM 64.4 °F 62.6 °F 94% 29.81 in 6.0 mi SW 3.5 mph - N/A   Overcast
12:51 AM 64.0 °F 62.1 °F 93% 29.79 in 6.0 mi Calm Calm - N/A   Overcast
1:17 AM 64.4 °F 62.6 °F 94% 29.79 in 5.0 mi Calm Calm - N/A   Overcast
1:51 AM 64.0 °F 62.1 °F 93% 29.77 in 5.0 mi Calm Calm - N/A   Overcast
2:03 AM 62.6 °F 62.6 °F 100% 29.78 in 5.0 mi Calm Calm - N/A   Overcast
2:51 AM 63.0 °F 61.0 °F 93% 29.75 in 5.0 mi Calm Calm - N/A   Overcast
3:35 AM 62.6 °F 60.8 °F 94% 29.75 in 5.0 mi SW 3.5 mph - N/A   Overcast
3:51 AM 63.0 °F 61.0 °F 93% 29.73 in 5.0 mi SW 4.6 mph - N/A   Overcast
4:11 AM 62.6 °F 60.8 °F 94% 29.74 in 5.0 mi SW 3.5 mph - N/A   Overcast
4:51 AM 63.0 °F 61.0 °F 93% 29.73 in 4.0 mi WSW 4.6 mph - N/A   Overcast
5:35 AM 62.6 °F 60.8 °F 94% 29.73 in 5.0 mi SW 3.5 mph - N/A   Overcast
5:49 AM 62.6 °F 60.8 °F 94% 29.74 in 6.0 mi WSW 5.8 mph - N/A   Overcast
5:51 AM 63.0 °F 61.0 °F 93% 29.73 in 6.0 mi WSW 5.8 mph - N/A   Overcast
6:19 AM 62.6 °F 60.8 °F 94% 29.73 in 6.0 mi Variable 3.5 mph - N/A   Overcast
6:51 AM 63.0 °F 61.0 °F 93% 29.73 in 6.0 mi SW 4.6 mph - N/A   Overcast
7:06 AM 62.6 °F 60.8 °F 94% 29.74 in 6.0 mi SW 3.5 mph - N/A   Overcast
7:51 AM 62.1 °F 60.1 °F 93% 29.73 in 5.0 mi SW 4.6 mph - N/A   Overcast
8:12 AM 62.6 °F 60.8 °F 94% 29.74 in 5.0 mi SW 4.6 mph - N/A   Overcast
8:23 AM 62.6 °F 60.8 °F 94% 29.74 in 5.0 mi Variable 5.8 mph - N/A   Overcast
8:51 AM 63.0 °F 60.1 °F 90% 29.73 in 6.0 mi SSW 3.5 mph - N/A   Overcast
9:49 AM 62.6 °F 60.8 °F 94% 29.74 in 9.0 mi SW 4.6 mph - N/A   Overcast
9:51 AM 64.0 °F 60.1 °F 87% 29.73 in 9.0 mi SW 8.1 mph - N/A   Overcast
10:51 AM 66.9 °F 60.1 °F 79% 29.72 in 10.0 mi SW 9.2 mph - N/A   Overcast
11:11 AM 66.2 °F 60.8 °F 83% 29.73 in 10.0 mi SW 8.1 mph - N/A   Overcast
11:51 AM 70.0 °F 61.0 °F 73% 29.71 in 10.0 mi SW 12.7 mph 18.4 mph N/A   Overcast
12:51 PM 73.0 °F 57.9 °F 59% 29.68 in 10.0 mi SW 9.2 mph 19.6 mph N/A   Mostly Cloudy
1:51 PM 73.0 °F 57.9 °F 59% 29.65 in 10.0 mi SSW 6.9 mph - N/A   Mostly Cloudy
2:51 PM 73.0 °F 57.0 °F 57% 29.64 in 10.0 mi WSW 11.5 mph 17.3 mph N/A   Scattered Clouds
3:51 PM 73.9 °F 55.0 °F 52% 29.62 in 10.0 mi SW 9.2 mph - N/A   Clear
4:38 PM 57.2 °F 53.6 °F 88% 29.67 in 1.8 mi West 6.9 mph 29.9 mph 0.04 in Rain Rain
4:43 PM 59.0 °F 53.6 °F 82% 29.66 in 3.0 mi West 6.9 mph 16.1 mph 0.04 in Rain Light Rain
4:51 PM 60.1 °F 55.0 °F 83% 29.65 in 6.0 mi WSW 4.6 mph - 0.04 in Rain Light Rain
5:51 PM 61.0 °F 57.0 °F 87% 29.64 in 10.0 mi South 3.5 mph - 0.01 in   Scattered Clouds
6:51 PM 60.1 °F 57.0 °F 90% 29.66 in 10.0 mi West 3.5 mph - N/A   Partly Cloudy
7:51 PM 60.1 °F 57.9 °F 93% 29.67 in 8.0 mi West 4.6 mph - 0.00 in Rain Light Rain
8:51 PM 60.1 °F 57.9 °F 93% 29.68 in 8.0 mi WSW 3.5 mph - 0.00 in   Mostly Cloudy
9:51 PM 59.0 °F 57.0 °F 93% 29.70 in 6.0 mi North - - N/A   Scattered Clouds
10:51 PM 59.0 °F 57.0 °F 93% 29.70 in 8.0 mi WSW 5.8 mph - N/A   Clear
11:51 PM 57.9 °F 55.9 °F 93% 29.71 in 9.0 mi WSW 5.8 mph - N/A   Clear